| time (UTC) | temp C | wind direction | speed KPH | gust KPH | rain 1hr cm | rain 24hr cm | rain mn cm | humidity % | barometer mb |
| 20260506195350 | 16 | 227 | 1.6 | 4.8 | 0.00 | 0.00 | 0.00 | 67 | 1013.7 |
| 20260506194354 | 17 | 223 | 1.6 | 6.4 | 0.00 | 0.00 | 0.00 | 67 | 1013.6 |
| 20260506193341 | 17 | 223 | 1.6 | 4.8 | 0.00 | 0.00 | 0.00 | 66 | 1013.4 |
| 20260506192340 | 17 | 223 | 3.2 | 6.4 | 0.00 | 0.00 | 0.00 | 67 | 1013.2 |
| 20260506191344 | 17 | 227 | 1.6 | 6.4 | 0.00 | 0.00 | 0.00 | 67 | 1013.1 |
| 20260506190354 | 17 | 228 | 1.6 | 8.0 | 0.00 | 0.00 | 0.00 | 67 | 1013.0 |
| 20260506185337 | 17 | 196 | 3.2 | 9.7 | 0.00 | 0.00 | 0.00 | 66 | 1012.9 |
| 20260506184337 | 17 | 193 | 3.2 | 11.3 | 0.00 | 0.00 | 0.00 | 65 | 1012.8 |
| 20260506183340 | 17 | 123 | 6.4 | 14.5 | 0.00 | 0.00 | 0.00 | 62 | 1012.5 |
| 20260506182336 | 18 | 132 | 1.6 | 11.3 | 0.00 | 0.00 | 0.00 | 61 | 1012.5 |
| 20260506181342 | 18 | 105 | 3.2 | 16.1 | 0.00 | 0.00 | 0.00 | 62 | 1012.4 |
| 20260506180347 | 18 | 122 | 8.0 | 16.1 | 0.00 | 0.00 | 0.00 | 61 | 1012.4 |
| 20260506175348 | 18 | 222 | 4.8 | 16.1 | 0.00 | 0.00 | 0.00 | 61 | 1012.1 |
| 20260506174340 | 18 | 179 | 1.6 | 9.7 | 0.00 | 0.00 | 0.00 | 60 | 1012.1 |
| 20260506173357 | 18 | 103 | 3.2 | 14.5 | 0.00 | 0.00 | 0.00 | 58 | 1012.1 |
| 20260506172357 | 18 | 177 | 8.0 | 16.1 | 0.00 | 0.00 | 0.00 | 56 | 1012.1 |
| 20260506171358 | 18 | 120 | 6.4 | 16.1 | 0.00 | 0.00 | 0.00 | 54 | 1012.0 |
| 20260506170336 | 18 | 120 | 9.7 | 16.1 | 0.00 | 0.00 | 0.00 | 53 | 1012.0 |
| 20260506165338 | 18 | 138 | 12.9 | 16.1 | 0.00 | 0.00 | 0.00 | 51 | 1011.8 |
| 20260506164343 | 18 | 112 | 8.0 | 14.5 | 0.00 | 0.00 | 0.00 | 48 | 1011.8 |
| 20260506163345 | 18 | 124 | 9.7 | 19.3 | 0.00 | 0.00 | 0.00 | 45 | 1011.9 |
| 20260506162339 | 18 | 82 | 8.0 | 22.5 | 0.00 | 0.00 | 0.00 | 45 | 1011.7 |
| 20260506161341 | 18 | 150 | 8.0 | 20.9 | 0.00 | 0.00 | 0.00 | 43 | 1011.5 |
| 20260506160350 | 18 | 189 | 6.4 | 20.9 | 0.00 | 0.00 | 0.00 | 44 | 1011.4 |
| 20260506155351 | 19 | 136 | 8.0 | 19.3 | 0.00 | 0.00 | 0.00 | 44 | 1011.4 |
| 20260506154336 | 19 | 136 | 9.7 | 22.5 | 0.00 | 0.00 | 0.00 | 45 | 1011.4 |
| 20260506153339 | 19 | 180 | 6.4 | 22.5 | 0.00 | 0.00 | 0.00 | 45 | 1011.3 |
| 20260506152357 | 19 | 113 | 8.0 | 33.8 | 0.00 | 0.00 | 0.00 | 44 | 1011.4 |
| 20260506151338 | 19 | 128 | 8.0 | 32.2 | 0.00 | 0.00 | 0.00 | 43 | 1011.4 |
| 20260506150339 | 19 | 171 | 11.3 | 30.6 | 0.00 | 0.00 | 0.00 | 44 | 1011.5 |
| 20260506145358 | 19 | 95 | 11.3 | 22.5 | 0.00 | 0.00 | 0.00 | 42 | 1011.4 |
| 20260506144356 | 19 | 113 | 9.7 | 27.4 | 0.00 | 0.00 | 0.00 | 41 | 1011.5 |
| 20260506143357 | 19 | 208 | 6.4 | 24.1 | 0.00 | 0.00 | 0.00 | 41 | 1011.6 |
| 20260506142352 | 19 | 143 | 12.9 | 29.0 | 0.00 | 0.00 | 0.00 | 41 | 1011.7 |
| 20260506141354 | 19 | 132 | 8.0 | 25.7 | 0.00 | 0.00 | 0.00 | 41 | 1011.7 |
| 20260506140348 | 19 | 156 | 9.7 | 25.7 | 0.00 | 0.00 | 0.00 | 40 | 1011.8 |
| 20260506135347 | 19 | 109 | 12.9 | 27.4 | 0.00 | 0.00 | 0.00 | 39 | 1012.0 |
| 20260506134351 | 20 | 135 | 17.7 | 27.4 | 0.00 | 0.00 | 0.00 | 39 | 1011.9 |
| 20260506133338 | 19 | 117 | 16.1 | 24.1 | 0.00 | 0.00 | 0.00 | 39 | 1012.1 |
| 20260506132339 | 19 | 126 | 11.3 | 24.1 | 0.00 | 0.00 | 0.00 | 38 | 1012.1 |
| 20260506131344 | 19 | 128 | 16.1 | 24.1 | 0.00 | 0.00 | 0.00 | 39 | 1012.2 |
| 20260506130351 | 20 | 109 | 9.7 | 20.9 | 0.00 | 0.00 | 0.00 | 39 | 1012.3 |
| 20260506125349 | 19 | 129 | 11.3 | 25.7 | 0.00 | 0.00 | 0.00 | 39 | 1012.4 |
| 20260506124355 | 20 | 137 | 9.7 | 29.0 | 0.00 | 0.00 | 0.00 | 38 | 1012.2 |
| 20260506123352 | 20 | 277 | 4.8 | 24.1 | 0.00 | 0.00 | 0.00 | 38 | 1012.2 |
| 20260506122353 | 21 | 149 | 8.0 | 17.7 | 0.00 | 0.00 | 0.00 | 38 | 1012.3 |
| 20260506121356 | 20 | 260 | 4.8 | 12.9 | 0.00 | 0.00 | 0.00 | 39 | 1012.4 |
| 20260506120356 | 20 | 235 | 4.8 | 17.7 | 0.00 | 0.00 | 0.00 | 38 | 1012.5 |
| 20260506115352 | 20 | 277 | 11.3 | 19.3 | 0.00 | 0.00 | 0.00 | 38 | 1012.6 |
| 20260506114354 | 20 | 263 | 1.6 | 14.5 | 0.00 | 0.00 | 0.00 | 39 | 1012.6 |
| 20260506113339 | 20 | 161 | 1.6 | 11.3 | 0.00 | 0.00 | 0.00 | 39 | 1012.6 |
| 20260506112337 | 20 | 262 | 11.3 | 17.7 | 0.00 | 0.00 | 0.00 | 41 | 1012.5 |
| 20260506111338 | 20 | 255 | 6.4 | 17.7 | 0.00 | 0.00 | 0.00 | 40 | 1012.7 |
| 20260506110340 | 20 | 328 | 4.8 | 8.0 | 0.00 | 0.00 | 0.00 | 41 | 1012.9 |
| 20260506105359 | 18 | 82 | 1.6 | 12.9 | 0.00 | 0.00 | 0.00 | 42 | 1012.8 |
| 20260506104356 | 18 | 14 | 4.8 | 14.5 | 0.00 | 0.00 | 0.00 | 42 | 1013.1 |
| 20260506103343 | 18 | 53 | 1.6 | 9.7 | 0.00 | 0.00 | 0.00 | 43 | 1013.1 |
| 20260506102337 | 18 | 271 | 3.2 | 8.0 | 0.00 | 0.00 | 0.00 | 45 | 1013.2 |
| 20260506101339 | 18 | 261 | 6.4 | 14.5 | 0.00 | 0.00 | 0.00 | 45 | 1013.2 |
| 20260506100347 | 18 | 227 | 1.6 | 12.9 | 0.00 | 0.00 | 0.00 | 46 | 1013.3 |
| 20260506095345 | 18 | 266 | 4.8 | 9.7 | 0.00 | 0.00 | 0.00 | 46 | 1013.4 |
| 20260506094353 | 18 | 302 | 3.2 | 20.9 | 0.00 | 0.00 | 0.00 | 45 | 1013.6 |
| 20260506093344 | 18 | 99 | 0.0 | 8.0 | 0.00 | 0.00 | 0.00 | 45 | 1013.5 |
| 20260506092339 | 17 | 59 | 1.6 | 6.4 | 0.00 | 0.00 | 0.00 | 47 | 1013.5 |
| 20260506091336 | 17 | 325 | 0.0 | 6.4 | 0.00 | 0.00 | 0.00 | 50 | 1013.5 |
| 20260506090343 | 17 | 76 | 0.0 | 6.4 | 0.00 | 0.00 | 0.00 | 52 | 1013.5 |
| 20260506085344 | 16 | 330 | 6.4 | 8.0 | 0.00 | 0.00 | 0.00 | 54 | 1013.5 |
| 20260506084351 | 16 | 255 | 1.6 | 9.7 | 0.00 | 0.00 | 0.00 | 56 | 1013.4 |
| 20260506083355 | 16 | 270 | 4.8 | 8.0 | 0.00 | 0.00 | 0.00 | 57 | 1013.4 |
| 20260506082337 | 15 | 269 | 4.8 | 8.0 | 0.00 | 0.00 | 0.00 | 59 | 1013.3 |
| 20260506081359 | 15 | 323 | 4.8 | 8.0 | 0.00 | 0.00 | 0.00 | 59 | 1013.4 |
| 20260506080336 | 15 | 295 | 3.2 | 8.0 | 0.00 | 0.00 | 0.00 | 60 | 1013.4 |
| 20260506073339 | 14 | 348 | 1.6 | 6.4 | 0.00 | 0.00 | 0.00 | 66 | 1013.3 |
| 20260506072338 | 14 | 0 | 4.8 | 8.0 | 0.00 | 0.00 | 0.00 | 68 | 1013.2 |
| 20260506071342 | 14 | 50 | 1.6 | 4.8 | 0.00 | 0.00 | 0.00 | 71 | 1013.1 |
| 20260506070347 | 13 | 53 | 0.0 | 4.8 | 0.00 | 0.00 | 0.00 | 74 | 1013.1 |
| 20260506062344 | 11 | 217 | 0.0 | 4.8 | 0.00 | 0.00 | 0.00 | 82 | 1013.0 |
| 20260506061348 | 11 | 206 | 0.0 | 3.2 | 0.00 | 0.00 | 0.00 | 83 | 1013.0 |
| 20260506060353 | 11 | 193 | 0.0 | 1.6 | 0.00 | 0.00 | 0.00 | 83 | 1013.0 |
| 20260506051346 | 10 | 193 | 0.0 | 1.6 | 0.00 | 0.00 | 0.00 | 84 | 1012.7 |
| 20260506050351 | 10 | 194 | 0.0 | 1.6 | 0.00 | 0.00 | 0.00 | 84 | 1012.7 |
| 20260506044335 | 11 | 191 | 0.0 | 0.0 | 0.00 | 0.00 | 0.00 | 84 | 1012.5 |
| 20260506043337 | 11 | 191 | 0.0 | 0.0 | 0.00 | 0.00 | 0.00 | 84 | 1012.4 |
| 20260506042356 | 11 | 191 | 0.0 | 0.0 | 0.00 | 0.00 | 0.00 | 84 | 1012.4 |
| 20260506041356 | 11 | 192 | 0.0 | 0.0 | 0.00 | 0.00 | 0.00 | 83 | 1012.3 |
| 20260506040343 | 11 | 192 | 0.0 | 0.0 | 0.00 | 0.00 | 0.00 | 83 | 1012.3 |
| 20260506035340 | 11 | 192 | 0.0 | 0.0 | 0.00 | 0.00 | 0.00 | 83 | 1012.2 |
| 20260506034340 | 11 | 192 | 0.0 | 1.6 | 0.00 | 0.00 | 0.00 | 83 | 1012.2 |
| 20260506033347 | 11 | 192 | 0.0 | 0.0 | 0.00 | 0.00 | 0.00 | 83 | 1012.1 |
| 20260506032341 | 11 | 192 | 0.0 | 1.6 | 0.00 | 0.00 | 0.00 | 82 | 1012.1 |
| 20260506031348 | 11 | 192 | 0.0 | 0.0 | 0.00 | 0.00 | 0.00 | 82 | 1012.1 |
| 20260506030354 | 11 | 192 | 0.0 | 4.8 | 0.00 | 0.00 | 0.00 | 82 | 1012.1 |
| 20260506025355 | 11 | 262 | 0.0 | 3.2 | 0.00 | 0.00 | 0.00 | 81 | 1012.1 |
| 20260506024340 | 11 | 265 | 0.0 | 1.6 | 0.00 | 0.00 | 0.00 | 81 | 1012.1 |
| 20260506023349 | 11 | 265 | 0.0 | 1.6 | 0.00 | 0.00 | 0.00 | 81 | 1012.1 |
| 20260506022351 | 11 | 264 | 0.0 | 6.4 | 0.00 | 0.00 | 0.00 | 80 | 1012.1 |
| 20260506021355 | 11 | 48 | 0.0 | 3.2 | 0.00 | 0.00 | 0.00 | 80 | 1011.9 |
| 20260506020355 | 12 | 48 | 3.2 | 4.8 | 0.00 | 0.00 | 0.00 | 80 | 1011.8 |
| 20260506015353 | 12 | 48 | 0.0 | 4.8 | 0.00 | 0.00 | 0.00 | 80 | 1011.8 |
| 20260506014338 | 11 | 48 | 0.0 | 0.0 | 0.00 | 0.00 | 0.00 | 79 | 1011.9 |
| 20260506013358 | 11 | 49 | 0.0 | 4.8 | 0.00 | 0.00 | 0.00 | 79 | 1011.8 |
| 20260506012356 | 12 | 49 | 3.2 | 4.8 | 0.00 | 0.00 | 0.00 | 79 | 1011.9 |
| 20260506011358 | 12 | 42 | 0.0 | 4.8 | 0.00 | 0.00 | 0.00 | 78 | 1011.9 |
| 20260506010335 | 12 | 39 | 0.0 | 3.2 | 0.00 | 0.00 | 0.00 | 78 | 1011.8 |
| 20260506005356 | 12 | 39 | 0.0 | 3.2 | 0.00 | 0.00 | 0.00 | 77 | 1011.9 |
| 20260506004358 | 12 | 39 | 0.0 | 3.2 | 0.00 | 0.03 | 0.00 | 77 | 1012.0 |
| 20260506003339 | 12 | 40 | 1.6 | 6.4 | 0.00 | 0.03 | 0.00 | 77 | 1012.0 |
| 20260506002339 | 13 | 21 | 0.0 | 0.0 | 0.00 | 0.03 | 0.00 | 77 | 1012.0 |
| 20260506001344 | 13 | 20 | 0.0 | 4.8 | 0.00 | 0.03 | 0.00 | 76 | 1012.0 |
| 20260506000344 | 13 | 20 | 3.2 | 6.4 | 0.00 | 0.03 | 0.00 | 76 | 1012.0 |
| 20260505235353 | 13 | 14 | 1.6 | 4.8 | 0.00 | 0.03 | 0.00 | 75 | 1012.1 |
| 20260505234351 | 13 | 14 | 3.2 | 6.4 | 0.00 | 0.03 | 0.00 | 75 | 1012.2 |
| 20260505233338 | 13 | 18 | 0.0 | 6.4 | 0.00 | 0.03 | 0.00 | 74 | 1012.2 |
| 20260505232355 | 13 | 17 | 3.2 | 9.7 | 0.00 | 0.03 | 0.00 | 74 | 1012.1 |
| 20260505231357 | 13 | 56 | 4.8 | 9.7 | 0.00 | 0.03 | 0.00 | 74 | 1011.8 |
| 20260505230338 | 13 | 20 | 4.8 | 9.7 | 0.00 | 0.03 | 0.00 | 74 | 1012.0 |
| 20260505225337 | 13 | 5 | 4.8 | 6.4 | 0.00 | 0.03 | 0.00 | 75 | 1012.1 |
| 20260505224357 | 13 | 54 | 0.0 | 6.4 | 0.00 | 0.03 | 0.00 | 75 | 1012.2 |
| 20260505223356 | 13 | 56 | 1.6 | 4.8 | 0.00 | 0.03 | 0.00 | 75 | 1012.1 |
| 20260505222357 | 13 | 58 | 0.0 | 3.2 | 0.00 | 0.03 | 0.00 | 75 | 1012.4 |
| 20260505221338 | 14 | 59 | 0.0 | 6.4 | 0.00 | 0.03 | 0.00 | 75 | 1012.5 |
| 20260505220343 | 14 | 79 | 4.8 | 8.0 | 0.00 | 0.03 | 0.00 | 76 | 1012.6 |
| 20260505215343 | 14 | 329 | 3.2 | 6.4 | 0.00 | 0.03 | 0.00 | 75 | 1012.8 |
| 20260505214348 | 14 | 319 | 3.2 | 6.4 | 0.00 | 0.03 | 0.00 | 74 | 1012.8 |
| 20260505212357 | 14 | 294 | 1.6 | 6.4 | 0.00 | 0.03 | 0.00 | 74 | 1012.8 |
| 20260505211338 | 14 | 199 | 0.0 | 0.0 | 0.00 | 0.03 | 0.00 | 74 | 1012.5 |
| 20260505210341 | 14 | 199 | 0.0 | 0.0 | 0.00 | 0.03 | 0.00 | 74 | 1012.3 |
| 20260505205357 | 14 | 199 | 1.6 | 4.8 | 0.00 | 0.03 | 0.00 | 75 | 1012.3 |
| 20260505204336 | 14 | 262 | 0.0 | 1.6 | 0.00 | 0.10 | 0.00 | 75 | 1012.1 |
| 20260505203343 | 14 | 262 | 0.0 | 6.4 | 0.00 | 0.10 | 0.00 | 75 | 1012.1 |
| 20260505202340 | 14 | 264 | 6.4 | 8.0 | 0.00 | 0.10 | 0.00 | 74 | 1012.1 |
| 20260505201346 | 14 | 254 | 6.4 | 8.0 | 0.00 | 0.10 | 0.00 | 73 | 1012.0 |
| 20260505200340 | 14 | 78 | 0.0 | 0.0 | 0.00 | 0.10 | 0.00 | 73 | 1011.5 |